This is the latest recevied weather packets stored in our database for station/object DL3TR-13. If no packets are shown the sender has not sent any weather packets the latest 10 day(s).
| Time | Temp. | Humidity | Pressure | Rain* | Wind** | Luminosity | Snow |
|---|---|---|---|---|---|---|---|
| 1778138592 | 8.33° C | 93% | 1013.1 hPa | 1.02 mm | - | 46 W/m² | - |
| 1778137992 | 8.33° C | 93% | 1013 hPa | 1.52 mm | - | 40 W/m² | - |
| 1778137391 | 8.33° C | 93% | 1013 hPa | 1.52 mm | - | 63 W/m² | - |
| 1778136791 | 8.33° C | 93% | 1012.8 hPa | 1.52 mm | - | 88 W/m² | - |
| 1778136191 | 8.33° C | 93% | 1012.7 hPa | 1.52 mm | - | 97 W/m² | - |
| 1778135592 | 8.33° C | 93% | 1012.7 hPa | 1.52 mm | - | 91 W/m² | - |
| 1778134991 | 8.33° C | 93% | 1012.7 hPa | 1.27 mm | - | 77 W/m² | - |
| 1778134391 | 8.33° C | 93% | 1012.5 hPa | 0.76 mm | - | 114 W/m² | - |
| 1778133792 | 8.33° C | 93% | 1012.5 hPa | 0.51 mm | - | 114 W/m² | - |
| 1778133191 | 7.78° C | 92% | 1012.4 hPa | 0.76 mm | - | 74 W/m² | - |
| 1778132591 | 7.78° C | 92% | 1012.3 hPa | 0.51 mm | - | 67 W/m² | - |
| 1778131992 | 8.33° C | 91% | 1012.3 hPa | 0.51 mm | - | 51 W/m² | - |
| 1778131392 | 8.33° C | 92% | 1012.1 hPa | 0.25 mm | - | 70 W/m² | - |
| 1778130792 | 7.78° C | 91% | 1011.9 hPa | 0.25 mm | - | 56 W/m² | - |
| 1778130192 | 7.78° C | 92% | 1011.8 hPa | 0.25 mm | - | 56 W/m² | - |
| 1778129592 | 7.78° C | 92% | 1011.6 hPa | 0 mm | - | 33 W/m² | - |
| 1778128992 | 7.78° C | 92% | 1011.5 hPa | 0 mm | - | 25 W/m² | - |
| 1778128392 | 7.78° C | 93% | 1011.5 hPa | 0 mm | - | 19 W/m² | - |
| 1778127791 | 7.22° C | 93% | 1011.2 hPa | 0 mm | - | 23 W/m² | - |
| 1778127191 | 7.22° C | 93% | 1011.2 hPa | 0 mm | - | 5 W/m² | - |
| 1778126591 | 7.22° C | 93% | 1011.2 hPa | 0 mm | - | 0 W/m² | - |
| 1778125991 | 6.67° C | 93% | 1011 hPa | 0 mm | - | 0 W/m² | - |
| 1778125392 | 6.11° C | 93% | 1011.1 hPa | 0 mm | - | 0 W/m² | - |
| 1778124792 | 6.11° C | 92% | 1011 hPa | 0 mm | - | 0 W/m² | - |
| 1778124191 | 6.67° C | 92% | 1010.8 hPa | 0 mm | - | 0 W/m² | - |
* Rain latest hour (hover to see other rain measurements)
** Current wind speed in m/s (hover to see current wind gust speed)